This is the latest recevied weather packets stored in our database for station/object YO6IKB-10. If no packets are shown the sender has not sent any weather packets the latest 10 day(s).
| Time | Temp. | Humidity | Pressure | Rain* | Wind** | Luminosity | Snow |
|---|---|---|---|---|---|---|---|
| 1777911701 | 20° C | 53% | 1011 hPa | 0 mm | - | - | - |
| 1777911401 | 20° C | 53% | 1011 hPa | 0 mm | - | - | - |
| 1777911100 | 20° C | 53% | 1010.9 hPa | 0 mm | - | - | - |
| 1777910800 | 20° C | 52% | 1010.9 hPa | 0 mm | - | - | - |
| 1777910500 | 20° C | 51% | 1010.9 hPa | 0 mm | - | - | - |
| 1777910199 | 20° C | 51% | 1010.9 hPa | 0 mm | - | - | - |
| 1777909899 | 20° C | 51% | 1010.8 hPa | 0 mm | - | - | - |
| 1777909599 | 20.56° C | 50% | 1010.8 hPa | 0 mm | - | - | - |
| 1777909299 | 20.56° C | 49% | 1010.8 hPa | 0 mm | - | - | - |
| 1777908998 | 21.11° C | 47% | 1010.8 hPa | 0 mm | - | - | - |
| 1777908698 | 21.67° C | 46% | 1010.9 hPa | 0 mm | - | - | - |
| 1777908398 | 22.22° C | 47% | 1010.8 hPa | 0 mm | - | - | - |
| 1777908097 | 22.78° C | 47% | 1010.9 hPa | 0 mm | - | - | - |
| 1777907797 | 22.78° C | 48% | 1010.9 hPa | 0 mm | - | - | - |
| 1777907497 | 22.78° C | 50% | 1010.9 hPa | 0 mm | - | - | - |
| 1777907197 | 21.67° C | 53% | 1010.9 hPa | 0 mm | - | - | - |
| 1777906896 | 20° C | 56% | 1010.9 hPa | 0 mm | - | - | - |
| 1777906596 | 19.44° C | 55% | 1011 hPa | 0 mm | - | - | - |
| 1777906296 | 19.44° C | 51% | 1011.1 hPa | 0 mm | - | - | - |
| 1777905995 | 21.11° C | 46% | 1011.1 hPa | 0 mm | - | - | - |
| 1777905695 | 22.78° C | 44% | 1011.3 hPa | 0 mm | - | - | - |
| 1777905395 | 22.78° C | 41% | 1011.2 hPa | 0 mm | - | - | - |
| 1777905095 | 23.33° C | 40% | 1011.2 hPa | 0 mm | - | - | - |
| 1777904794 | 23.33° C | 40% | 1011.1 hPa | 0 mm | - | - | - |
| 1777904494 | 23.33° C | 40% | 1011.1 hPa | 0 mm | - | - | - |
* Rain latest hour (hover to see other rain measurements)
** Current wind speed in m/s (hover to see current wind gust speed)